Weather History for Whitefield, NH

Change the Weather History Date:

Wednesday, August 21, 2013

  Actual Average Record
Temperature  
Mean Temperature 68 °F -  
Max Temperature 84 °F 74 °F 84 °F (2003)
Min Temperature 53 °F 46 °F 33 °F (2007)
Cooling Degree Days 2    
Growing Degree Days 18 (Base 50)    
Moisture  
Dew Point 58 °F    
Average Humidity 74    
Maximum Humidity 94    
Minimum Humidity 46    
Precipitation  
Precipitation 0.01 in - - ()
Sea Level Pressure  
Sea Level Pressure 30.11 in    
Wind  
Wind Speed 1 mph (WSW)    
Max Wind Speed 8 mph    
Max Gust Speed -    
Visibility 8 miles    
Events      
Averages and records for this station are not official NWS values.
T = Trace of Precipitation, MM = Missing Value Source: NWS Daily Summary

Daily Weather History Graph

Daily Weather History Graph

Search for Another Location

Airport:

Trip Planner

Search our weather history database for the weather conditions in past years. The results will help you decide how hot, cold, wet, or windy it might be!

Date:

Astronomy

Aug. 21, 2013 Rise Set
Actual Time 5:56 AM EDT 7:41 PM EDT
Civil Twilight 5:25 AM EDT 8:11 PM EDT
Nautical Twilight 4:47 AM EDT 8:49 PM EDT
Astronomical Twilight 4:07 AM EDT 9:29 PM EDT
Moon 7:43 PM EDT (8/21) 6:36 AM EDT (8/21)
Length of Visible Light 14h 46m
Length of Day
13h 44m
Full, 100% of the Moon is Illuminated
Aug 21
Full
Aug 28
Last Quarter
Sep 5
New
Sep 12
First Quarter
Sep 19
Full

Hourly Weather History & Observations

Time (EDT) Temp. Heat Index Dew Point Humidity Pressure Visibility Wind Dir Wind Speed Gust Speed Precip Events Conditions
12:52 AM 57.9 °F - 55.0 °F 90% 30.13 in 6.0 mi Calm Calm - N/A   Clear
1:52 AM 57.0 °F - 54.0 °F 89% 30.14 in 6.0 mi Calm Calm - N/A   Clear
2:52 AM 55.9 °F - 53.1 °F 90% 30.14 in 5.0 mi Calm Calm - N/A   Clear
3:52 AM 54.0 °F - 52.0 °F 93% 30.15 in 5.0 mi Calm Calm - N/A   Clear
4:52 AM 54.0 °F - 51.1 °F 90% 30.15 in 5.0 mi Calm Calm - N/A   Clear
5:40 AM 53.6 °F - 50.0 °F 88% 30.16 in 5.0 mi Calm Calm - N/A   Scattered Clouds
5:49 AM 53.6 °F - 50.0 °F 88% 30.16 in 6.0 mi Calm Calm - N/A   Mostly Cloudy
5:52 AM 54.0 °F - 51.1 °F 90% 30.16 in 6.0 mi Calm Calm - N/A   Mostly Cloudy
6:30 AM 53.6 °F - 51.8 °F 94% 30.17 in 4.0 mi Calm Calm - 0.01 in   Scattered Clouds
6:52 AM 54.0 °F - 51.1 °F 90% 30.17 in 3.0 mi Calm Calm - 0.01 in   Clear
7:52 AM 60.1 °F - 55.9 °F 86% 30.17 in 5.0 mi Calm Calm - N/A   Clear
8:52 AM 69.1 °F - 61.0 °F 75% 30.16 in 8.0 mi Calm Calm - N/A   Clear
9:52 AM 73.9 °F - 62.1 °F 66% 30.16 in 10.0 mi Calm Calm - N/A   Clear
10:52 AM 78.1 °F - 62.1 °F 58% 30.15 in 10.0 mi WSW 4.6 mph - N/A   Clear
11:52 AM 79.0 °F - 61.0 °F 54% 30.14 in 10.0 mi WSW 4.6 mph - N/A   Clear
12:52 PM 81.0 °F 81.3 °F 59.0 °F 47% 30.12 in 10.0 mi Variable 3.5 mph - N/A   Clear
1:52 PM 81.0 °F 81.7 °F 61.0 °F 50% 30.11 in 10.0 mi WNW 8.1 mph - N/A   Partly Cloudy
2:52 PM 82.9 °F 83.3 °F 61.0 °F 47% 30.09 in 10.0 mi Calm Calm - N/A   Scattered Clouds
3:52 PM 82.9 °F 83.2 °F 60.1 °F 46% 30.07 in 10.0 mi Calm Calm - N/A   Clear
4:52 PM 82.0 °F 82.7 °F 61.0 °F 49% 30.06 in 10.0 mi WSW 6.9 mph - N/A   Clear
5:52 PM 82.0 °F 83.1 °F 63.0 °F 52% 30.05 in 10.0 mi Calm Calm - N/A   Scattered Clouds
6:52 PM 79.0 °F - 62.1 °F 56% 30.04 in 10.0 mi SW 3.5 mph - N/A   Partly Cloudy
7:52 PM 72.0 °F - 64.9 °F 78% 30.03 in 8.0 mi South 4.6 mph - N/A   Clear
8:52 PM 70.0 °F - 61.0 °F 73% 30.03 in 10.0 mi Calm Calm - N/A   Clear
9:52 PM 64.9 °F - 60.1 °F 84% 30.02 in 8.0 mi Calm Calm - N/A   Clear
10:52 PM 64.0 °F - 59.0 °F 84% 30.03 in 7.0 mi Calm Calm - N/A   Scattered Clouds
11:52 PM 63.0 °F - 59.0 °F 87% 30.03 in 6.0 mi Calm Calm - N/A   Mostly Cloudy